Wind_Speed
22 19 24 17 16 23 21 22 21 25 26 27 28 24 24 25 26 26 26 28 29 30 32 34 38 39 39 41 43 48 55 58 59 60 60 61 59 56 56 57 58 63 70 70 69 68 64 62 60
19 19 20 20 19 22 29 25 21 21 24 26 29 26 24 24 26 23 26 26 27 29 33 36 38 40 40 39 42 44 48 52 60 63 63 64 64 63 62 61 61 59 60 65 72 73 71 65 62
18 17 18 19 18 22 25 28 30 26 25 26 27 28 28 28 28 26 25 29 28 29 29 33 37 38 36 39 39 42 41 45 50 59 65 66 67 66 66 67 66 64 63 61 63 69 76 73 70
14 16 16 17 21 22 24 26 28 31 29 29 26 26 29 30 27 28 27 29 30 30 32 33 35 39 40 42 41 43 45 43 44 48 57 63 68 69 70 70 70 67 68 68 64 64 66 70 74
16 17 18 19 19 21 24 25 29 31 34 35 30 30 26 31 31 32 33 33 35 35 36 38 40 42 44 45 49 50 51 50 42 44 49 55 61 67 71 72 72 71 71 71 71 68 66 66 67
19 18 20 24 22 22 25 28 28 29 35 37 35 35 34 33 32 34 37 38 40 43 42 41 43 45 47 49 51 54 56 57 49 42 43 48 52 57 63 70 74 75 75 75 75 72 71 70 69
20 21 21 23 24 24 26 28 32 33 35 37 40 38 39 38 36 36 38 41 44 47 48 46 46 49 50 54 54 56 59 61 54 46 41 42 47 50 53 56 63 69 76 79 81 80 78 76 73
24 21 23 24 28 26 27 29 34 36 38 38 39 41 42 43 41 40 41 44 47 50 53 53 51 52 53 57 57 58 61 65 58 49 44 42 44 47 50 52 55 57 61 66 70 75 77 77 76
22 21 22 23 25 28 30 32 34 35 37 42 44 44 44 43 45 43 43 46 48 51 55 57 57 54 57 59 59 60 64 67 62 52 45 44 44 46 49 51 53 55 57 59 62 65 65 69 73
27 24 24 27 28 29 32 35 37 37 39 43 45 46 50 47 45 47 46 50 50 53 56 58 59 57 59 60 63 65 67 70 64 53 45 44 44 45 49 51 53 54 55 57 58 60 60 62 65
29 28 28 28 32 32 35 35 36 39 41 45 47 49 51 52 45 44 46 50 52 53 56 58 59 59 61 63 67 69 70 72 68 55 48 43 43 44 48 51 52 52 53 55 56 57 57 59 62
31 30 33 32 32 36 37 37 37 40 43 46 47 50 52 55 47 50 50 50 51 55 57 58 59 60 67 70 70 70 74 75 68 55 48 46 44 44 46 48 50 52 52 54 55 55 56 58 61
33 34 35 34 35 37 40 41 40 41 42 46 49 52 54 54 50 50 50 51 53 55 57 61 65 68 71 72 72 73 76 76 65 55 50 47 45 43 45 47 51 52 52 53 54 55 55 56 58
37 38 37 37 39 39 40 41 40 44 45 47 49 52 55 55 54 56 52 51 52 56 59 62 64 68 70 72 73 75 78 74 66 58 53 49 48 48 49 51 53 54 54 55 55 54 54 57 58
39 42 40 39 42 43 45 45 39 44 46 47 52 54 56 56 57 60 54 54 53 55 58 61 64 67 70 73 73 75 79 75 65 58 55 52 50 51 53 54 55 56 55 55 54 54 56 58 59
43 45 42 45 45 46 47 50 41 42 47 48 51 56 57 57 60 61 60 53 52 56 59 62 64 67 69 70 72 74 79 69 63 58 57 56 57 58 58 58 58 57 57 56 57 56 56 59 61
48 48 48 49 48 49 50 53 47 45 50 51 52 57 57 59 60 62 57 53 51 56 59 63 65 67 67 70 74 77 78 68 62 60 59 60 62 58 55 56 55 53 54 54 54 53 56 59 60
56 52 49 52 50 51 53 57 53 48 52 55 55 57 58 58 58 61 55 51 52 55 59 63 64 65 69 73 75 79 77 66 63 61 62 63 61 55 51 52 49 48 49 49 49 48 49 52 48
61 57 58 54 52 54 54 59 58 54 55 58 60 60 56 59 60 59 55 50 53 54 60 62 63 66 70 75 77 80 75 64 62 62 64 62 57 50 46 45 45 44 42 38 39 40 40 36 36
62 63 63 60 56 57 59 59 60 57 59 61 63 63 60 59 61 57 53 51 52 53 56 61 64 69 71 76 77 78 72 64 63 63 62 57 52 45 41 36 32 28 29 29 28 27 27 27 28
60 61 63 64 64 60 62 63 62 60 61 63 66 61 61 60 57 56 51 49 49 51 56 60 66 70 71 76 75 77 69 66 65 62 56 50 46 41 37 29 20 17 16 17 18 18 19 21 22
64 62 60 57 59 63 66 64 67 67 66 69 64 62 61 59 54 56 51 48 51 56 60 63 63 68 71 74 76 76 69 66 65 61 54 45 40 39 29 19 13 11 12 12 12 14 18 21 25
71 69 67 65 61 61 66 66 72 72 70 68 64 63 60 58 54 53 49 49 52 54 57 59 61 67 71 73 77 75 70 64 63 59 47 38 36 32 18 11 8 5 3 7 17 24 27 27 26
78 77 74 72 67 63 67 68 74 74 73 68 64 60 58 54 52 47 46 47 47 52 56 58 60 65 70 73 77 76 69 64 62 54 39 36 32 22 14 12 8 6 8 14 17 24 28 31 29
81 81 79 75 72 67 69 68 74 76 72 64 62 61 55 54 48 45 46 49 50 49 51 56 61 63 68 72 76 76 68 64 62 48 39 33 22 18 20 20 18 14 10 11 13 22 27 27 29
85 86 84 77 73 70 71 68 73 75 68 63 62 57 50 50 45 44 46 46 47 46 49 54 60 61 65 69 75 76 67 60 56 45 38 28 25 25 24 26 23 19 13 9 10 9 18 30 39
89 88 88 83 78 78 74 70 73 73 70 66 57 53 51 52 48 41 41 51 51 50 54 56 58 59 62 67 72 74 67 58 54 44 36 30 29 28 28 28 25 21 19 16 18 29 40 47 47
91 90 90 88 82 79 73 67 68 74 71 61 55 53 53 49 43 36 36 46 49 50 53 52 54 55 59 63 70 72 62 56 54 47 36 29 30 33 33 32 28 25 26 26 27 35 41 53 50
94 89 90 88 80 74 70 68 70 69 66 61 57 55 51 45 41 40 36 44 47 50 51 49 50 51 54 58 67 69 52 50 51 45 33 33 34 32 29 31 35 35 27 31 28 33 45 48 50
94 86 86 85 81 78 74 67 67 71 72 65 61 55 50 46 40 38 37 39 44 48 48 47 46 46 50 53 61 64 46 42 46 44 35 35 39 32 32 31 32 31 31 26 23 28 32 37 36
Wind_Direction
15 17 19 15 8 17 357 349 346 351 346 351 353 349 343 346 342 334 330 328 326 318 312 309 309 309 305 301 296 288 279 276 273 270 270 269 269 268 265 261 258 257 254 254 255 253 253 255 254
4 19 22 31 25 23 19 5 348 338 339 337 343 341 341 341 347 344 336 329 326 322 315 311 308 309 308 308 304 300 288 278 269 267 266 264 265 264 261 262 262 260 259 256 252 252 251 250 253
344 355 17 18 18 15 17 15 14 1 344 334 335 334 332 340 342 343 338 337 332 326 323 319 316 315 317 323 318 317 310 291 279 268 264 264 265 262 261 262 264 261 260 259 258 255 251 249 249
352 352 351 1 9 5 11 11 4 6 5 358 334 329 324 330 331 331 329 331 332 328 329 323 322 322 326 328 328 327 325 315 291 277 267 264 262 262 263 262 263 260 260 258 258 259 257 254 249
327 347 347 357 1 356 358 2 6 5 3 3 356 344 326 318 324 328 336 326 325 330 329 325 325 328 329 332 330 330 329 327 311 289 276 268 264 261 261 262 262 262 262 261 259 256 257 258 255
318 333 343 343 350 357 355 355 358 1 0 356 2 351 335 329 320 321 326 328 322 320 323 324 326 326 328 329 331 332 330 328 319 302 285 277 270 266 262 260 260 261 262 262 262 260 257 255 255
312 319 334 337 341 345 346 347 348 349 349 355 353 353 346 336 326 320 323 324 323 322 318 322 325 327 329 329 331 332 331 328 321 309 295 281 275 271 268 266 262 260 261 261 262 262 262 259 255
298 318 322 331 335 334 337 339 343 343 343 349 351 350 348 339 326 322 320 325 323 321 322 324 324 324 325 328 330 333 331 328 323 313 299 286 279 275 272 268 266 264 263 261 261 261 260 260 258
299 311 317 330 330 331 336 338 341 340 338 342 345 346 348 340 333 323 321 322 323 322 323 323 323 322 323 326 329 331 330 328 325 315 304 292 284 279 275 271 269 266 264 262 261 260 260 260 259
286 302 306 317 325 326 329 331 333 334 335 341 342 342 342 343 333 327 322 321 322 322 322 323 322 320 323 323 328 329 328 326 326 316 307 296 288 282 277 273 272 270 269 266 264 263 261 259 258
283 292 301 311 315 318 326 327 336 336 332 337 338 337 339 341 334 333 322 323 322 323 321 320 320 319 321 324 327 328 328 325 325 320 311 301 291 282 274 270 270 268 266 264 262 260 259 256 255
282 291 295 302 308 312 319 321 326 333 330 334 333 333 336 338 337 334 330 320 319 318 319 320 321 322 323 324 324 325 327 326 325 320 315 306 299 287 278 274 270 267 267 266 261 258 255 252 253
282 291 295 296 305 306 312 317 320 325 327 330 334 332 333 335 337 333 327 323 316 314 317 318 318 320 321 321 323 325 325 326 323 318 314 309 300 290 280 275 273 270 268 265 261 258 256 254 251
286 286 291 299 302 304 309 312 319 318 321 325 329 328 329 330 335 335 329 323 317 316 316 317 319 319 321 322 322 324 326 325 320 318 315 309 302 294 287 280 275 271 268 264 261 259 257 256 254
283 287 289 298 300 299 304 307 315 315 317 323 323 325 327 328 331 330 329 324 317 316 316 318 320 321 323 324 323 325 327 325 322 320 315 310 304 298 291 285 279 274 268 265 261 257 257 258 257
277 282 288 295 296 299 301 305 311 314 314 319 321 323 324 326 326 329 330 320 314 315 315 318 319 321 324 323 325 327 328 326 325 321 317 312 305 298 292 285 279 272 267 262 259 258 256 256 254
272 281 283 288 298 295 299 300 308 312 309 315 318 320 320 321 323 327 327 317 314 315 317 317 319 322 323 324 328 329 330 328 327 322 318 312 306 301 295 288 282 273 267 262 259 257 255 254 254
270 275 281 288 293 296 298 298 305 308 307 309 314 317 317 318 324 326 324 314 314 316 316 317 320 322 325 327 331 332 332 330 327 324 319 313 311 306 297 289 283 275 268 262 258 257 256 254 256
272 273 281 285 288 295 297 297 301 306 306 306 310 315 316 317 322 325 321 313 315 314 315 317 321 324 327 329 333 334 333 332 329 326 320 318 315 305 297 292 285 276 272 267 260 256 250 252 246
273 274 279 281 285 293 294 296 297 300 304 306 308 312 314 319 323 323 321 311 314 312 315 318 322 325 329 331 334 335 334 335 333 326 324 323 315 313 308 300 295 281 269 263 255 250 246 236 231
276 276 280 281 282 288 294 294 297 299 302 305 308 310 314 318 320 323 316 312 310 313 316 318 322 325 329 332 335 335 338 338 334 328 329 327 322 322 320 313 298 281 264 252 252 241 229 218 211
273 275 280 284 287 285 287 289 291 297 301 305 306 310 313 315 317 322 315 307 306 309 313 317 323 325 330 335 338 338 342 341 335 334 336 330 329 333 326 316 300 285 263 248 221 190 192 194 189
270 275 278 279 284 286 286 288 291 294 299 303 306 307 312 314 318 316 313 303 307 311 315 320 323 326 331 338 341 344 345 342 338 342 338 335 341 334 337 335 322 296 239 195 176 175 178 183 180
270 273 277 278 280 284 286 288 288 292 296 300 303 307 312 317 321 308 302 300 307 311 316 319 324 330 334 340 344 346 348 344 344 344 342 350 347 347 4 27 51 90 129 172 175 173 175 175 168
269 273 278 281 281 281 285 288 286 290 295 299 302 306 314 319 316 305 294 297 305 312 317 319 324 332 337 341 346 348 350 347 349 352 358 356 2 31 49 62 69 79 110 154 166 177 174 171 172
269 274 276 279 279 282 285 287 288 291 292 297 302 306 311 317 319 302 295 295 304 313 320 322 324 332 337 342 348 349 352 351 355 2 0 10 30 51 58 62 70 79 99 118 134 152 145 147 135
271 273 274 276 279 282 284 286 287 287 290 295 301 305 310 314 319 311 298 293 300 304 308 319 322 330 336 342 349 350 352 356 359 10 10 24 43 58 62 66 72 73 69 89 103 126 132 129 122
271 273 275 277 277 280 281 282 283 285 290 296 299 303 308 313 313 307 306 294 301 302 308 315 323 330 336 342 348 351 353 358 6 10 20 46 63 68 68 69 71 72 77 104 120 119 140 139 134
271 271 273 273 276 277 279 281 285 290 292 296 298 302 306 309 299 292 295 293 299 300 307 313 320 331 336 341 347 351 352 1 9 16 31 50 60 63 62 69 73 79 94 114 120 124 137 150 156
269 271 272 274 279 279 283 288 288 289 290 293 296 300 302 297 291 289 289 291 294 299 305 311 320 330 334 340 347 352 354 5 11 17 39 67 69 71 72 89 98 91 106 110 116 133 149 149 155
Height
10825 10823 10820 10817 10817 10814 10811 10809 10806 10803 10801 10799 10797 10794 10791 10789 10787 10784 10780 10777 10773 10770 10767 10764 10760 10756 10751 10746 10740 10735 10731 10728 10726 10725 10725 10725 10725 10725 10726 10726 10725 10726 10728 10730 10733 10738 10742 10745 10749
10824 10822 10820 10817 10815 10813 10811 10808 10806 10804 10800 10798 10795 10792 10789 10788 10786 10782 10779 10774 10770 10767 10764 10760 10755 10750 10746 10740 10734 10727 10721 10716 10713 10711 10710 10710 10711 10712 10713 10714 10715 10714 10716 10716 10719 10723 10728 10734 10735
10822 10821 10819 10816 10814 10812 10810 10808 10805 10802 10798 10795 10793 10790 10788 10786 10782 10779 10775 10771 10767 10764 10760 10755 10749 10744 10738 10733 10727 10720 10713 10706 10701 10697 10696 10695 10696 10697 10698 10700 10701 10703 10703 10704 10707 10708 10712 10719 10724
10821 10819 10817 10815 10813 10810 10808 10806 10803 10800 10797 10793 10790 10788 10785 10782 10778 10775 10771 10767 10763 10758 10753 10748 10743 10737 10731 10724 10719 10712 10706 10698 10691 10685 10681 10680 10681 10682 10683 10684 10685 10687 10689 10691 10693 10695 10698 10705 10710
10820 10817 10814 10812 10811 10808 10805 10802 10800 10797 10793 10791 10787 10783 10781 10777 10774 10771 10767 10762 10757 10751 10745 10740 10735 10728 10722 10715 10709 10702 10695 10689 10682 10675 10670 10667 10666 10666 10667 10668 10669 10671 10673 10675 10679 10682 10685 10689 10693
10817 10815 10812 10809 10807 10805 10802 10799 10796 10794 10791 10787 10784 10780 10776 10772 10769 10765 10761 10757 10752 10746 10740 10734 10728 10721 10715 10707 10700 10693 10686 10678 10672 10665 10659 10655 10653 10652 10652 10653 10655 10656 10657 10659 10661 10665 10670 10673 10678
10814 10812 10810 10807 10805 10802 10799 10796 10793 10789 10788 10784 10779 10776 10773 10768 10764 10760 10756 10752 10746 10740 10734 10728 10720 10713 10706 10699 10692 10685 10678 10669 10661 10654 10648 10643 10640 10639 10638 10637 10638 10639 10641 10643 10644 10647 10650 10656 10662
10811 10809 10807 10804 10802 10799 10796 10793 10790 10786 10783 10781 10778 10773 10768 10763 10757 10754 10750 10746 10740 10734 10728 10721 10713 10706 10699 10691 10684 10676 10668 10660 10651 10643 10636 10631 10628 10626 10625 10624 10623 10623 10623 10624 10626 10629 10632 10636 10640
10806 10805 10803 10801 10799 10796 10794 10791 10787 10783 10779 10776 10772 10768 10764 10759 10754 10748 10744 10739 10734 10728 10721 10714 10707 10699 10692 10684 10675 10667 10659 10650 10640 10632 10625 10619 10616 10613 10611 10609 10609 10608 10608 10609 10610 10612 10616 10618 10620
10801 10800 10798 10797 10795 10793 10790 10787 10784 10780 10775 10772 10768 10764 10759 10754 10748 10743 10738 10732 10727 10720 10713 10707 10700 10693 10685 10676 10667 10658 10649 10640 10631 10621 10613 10608 10604 10601 10597 10595 10594 10593 10593 10594 10594 10596 10600 10601 10602
10795 10795 10794 10793 10790 10788 10786 10782 10779 10775 10771 10768 10764 10759 10754 10749 10742 10737 10732 10726 10719 10713 10707 10701 10695 10687 10677 10668 10658 10649 10640 10630 10620 10611 10604 10598 10593 10589 10584 10581 10580 10578 10578 10577 10577 10578 10582 10585 10586
10789 10789 10788 10787 10785 10783 10781 10778 10775 10771 10765 10762 10760 10755 10750 10743 10736 10730 10725 10718 10713 10707 10701 10695 10687 10679 10669 10659 10650 10640 10629 10617 10606 10598 10590 10584 10580 10575 10571 10566 10563 10561 10562 10561 10560 10561 10564 10569 10570
10783 10783 10781 10780 10780 10777 10775 10773 10769 10765 10760 10756 10752 10748 10744 10739 10733 10727 10721 10714 10707 10700 10694 10686 10677 10669 10659 10649 10639 10628 10617 10605 10593 10584 10576 10569 10563 10559 10554 10550 10546 10544 10544 10542 10543 10544 10546 10551 10554
10776 10775 10775 10774 10774 10770 10769 10766 10764 10759 10754 10750 10746 10741 10736 10731 10726 10720 10714 10708 10700 10693 10687 10678 10670 10660 10649 10638 10628 10617 10604 10590 10578 10570 10562 10556 10549 10543 10538 10534 10529 10526 10525 10523 10524 10526 10528 10531 10536
10770 10768 10767 10768 10767 10765 10762 10759 10760 10753 10748 10744 10740 10735 10729 10724 10718 10712 10706 10699 10693 10686 10678 10670 10662 10651 10639 10628 10618 10606 10592 10578 10566 10556 10547 10539 10533 10526 10520 10515 10511 10507 10506 10506 10505 10508 10510 10513 10516
10763 10760 10760 10761 10760 10758 10755 10748 10755 10748 10741 10739 10734 10729 10723 10717 10711 10705 10699 10692 10686 10679 10671 10663 10654 10643 10632 10621 10610 10595 10581 10566 10552 10541 10531 10522 10514 10506 10499 10493 10489 10485 10484 10484 10485 10488 10492 10494 10498
10752 10752 10752 10753 10753 10751 10748 10741 10746 10743 10733 10732 10728 10721 10716 10711 10704 10698 10691 10684 10679 10672 10664 10656 10647 10636 10625 10612 10599 10584 10568 10552 10539 10527 10516 10506 10494 10485 10478 10470 10465 10463 10462 10463 10466 10470 10473 10475 10478
10742 10743 10742 10743 10745 10742 10740 10734 10735 10735 10727 10722 10721 10716 10709 10704 10697 10690 10683 10677 10672 10664 10656 10648 10638 10627 10616 10604 10589 10571 10554 10539 10527 10514 10501 10486 10474 10464 10455 10449 10444 10442 10442 10445 10449 10453 10456 10457 10465
10733 10733 10733 10734 10736 10734 10732 10726 10725 10725 10721 10714 10711 10708 10704 10697 10691 10683 10677 10670 10664 10657 10649 10640 10630 10618 10607 10593 10578 10561 10544 10530 10515 10500 10484 10470 10457 10447 10439 10432 10427 10426 10427 10432 10435 10438 10441 10448 10452
10723 10724 10723 10725 10727 10727 10723 10717 10718 10716 10710 10707 10703 10699 10695 10690 10683 10676 10669 10663 10658 10650 10642 10632 10622 10609 10597 10584 10569 10553 10536 10519 10503 10487 10472 10457 10442 10433 10425 10419 10415 10414 10415 10419 10422 10427 10433 10438 10443
10711 10712 10713 10716 10718 10718 10715 10710 10706 10707 10703 10698 10694 10691 10687 10681 10674 10668 10662 10655 10651 10644 10634 10626 10615 10602 10591 10577 10563 10544 10526 10508 10492 10476 10461 10447 10434 10423 10415 10409 10404 10405 10407 10411 10416 10422 10426 10432 10440
10700 10700 10702 10705 10708 10708 10705 10705 10692 10697 10694 10690 10685 10682 10678 10672 10666 10660 10655 10648 10643 10636 10628 10620 10609 10597 10586 10571 10554 10535 10518 10500 10483 10466 10451 10438 10427 10416 10408 10402 10400 10402 10404 10409 10412 10418 10423 10430 10437
10687 10687 10690 10694 10696 10697 10692 10694 10682 10684 10684 10681 10677 10673 10669 10663 10657 10652 10648 10641 10637 10630 10623 10614 10604 10592 10580 10564 10547 10529 10513 10495 10477 10462 10447 10435 10423 10414 10406 10401 10400 10402 10405 10410 10414 10419 10424 10432 10439
10672 10673 10676 10681 10683 10688 10679 10683 10673 10674 10673 10671 10669 10665 10661 10656 10650 10645 10642 10634 10630 10624 10619 10611 10600 10588 10575 10560 10543 10525 10511 10492 10474 10459 10443 10432 10423 10414 10407 10404 10404 10405 10409 10413 10417 10423 10428 10434 10442
10656 10659 10663 10667 10669 10673 10669 10671 10664 10662 10663 10661 10660 10656 10652 10648 10642 10638 10637 10630 10625 10619 10613 10607 10597 10585 10571 10557 10541 10524 10509 10490 10473 10456 10441 10432 10424 10416 10412 10410 10409 10413 10416 10420 10425 10428 10434 10442 10449
10641 10645 10646 10651 10656 10659 10659 10660 10651 10649 10651 10651 10650 10648 10643 10639 10635 10632 10631 10624 10620 10615 10609 10602 10593 10583 10569 10556 10541 10524 10509 10493 10476 10457 10446 10435 10428 10423 10420 10418 10418 10421 10426 10430 10435 10441 10445 10453 10459
10627 10630 10628 10635 10641 10646 10647 10646 10637 10635 10639 10640 10639 10637 10635 10632 10626 10624 10623 10619 10615 10609 10604 10598 10590 10581 10568 10555 10541 10525 10510 10497 10479 10464 10453 10442 10436 10433 10431 10429 10430 10433 10436 10440 10446 10453 10457 10464 10473
10607 10609 10613 10617 10625 10631 10636 10634 10625 10621 10626 10626 10627 10627 10624 10623 10619 10617 10617 10613 10609 10604 10600 10595 10587 10579 10567 10556 10543 10529 10514 10502 10485 10470 10459 10452 10448 10444 10444 10444 10444 10447 10449 10453 10459 10466 10470 10477 10484
10586 10594 10594 10597 10607 10614 10619 10621 10618 10609 10607 10611 10615 10616 10615 10614 10613 10610 10610 10607 10603 10599 10596 10590 10584 10577 10567 10557 10544 10534 10519 10509 10494 10483 10471 10463 10460 10458 10458 10457 10458 10460 10463 10466 10472 10477 10481 10488 10493
10566 10571 10573 10577 10585 10594 10602 10607 10603 10598 10591 10595 10601 10606 10606 10606 10604 10603 10602 10601 10597 10594 10591 10586 10581 10575 10567 10558 10547 10537 10526 10518 10505 10493 10483 10477 10474 10471 10471 10471 10473 10475 10476 10480 10484 10488 10492 10496 10501